Weather History for Oceana NAS, VA

Change the Weather History Date:

Friday, October 5, 2012

  Actual Average Record
Temperature  
Mean Temperature 71 °F -  
Max Temperature 80 °F 71 °F 89 °F (2002)
Min Temperature 64 °F 55 °F 48 °F (2010)
Cooling Degree Days 6    
Growing Degree Days 21 (Base 50)    
Moisture  
Dew Point 61 °F    
Average Humidity 73    
Maximum Humidity 93    
Minimum Humidity 45    
Precipitation  
Precipitation 0.00 in - - ()
Sea Level Pressure  
Sea Level Pressure 30.09 in    
Wind  
Wind Speed 3 mph (NE)    
Max Wind Speed 9 mph    
Max Gust Speed -    
Visibility 10 miles    
Events      
Averages and records for this station are not official NWS values.
T = Trace of Precipitation, MM = Missing Value Source: NWS Daily Summary

Daily Weather History Graph

Daily Weather History Graph

Search for Another Location

Airport:

Trip Planner

Search our weather history database for the weather conditions in past years. The results will help you decide how hot, cold, wet, or windy it might be!

Date:

Astronomy

Oct. 05, 2012 Rise Set
Actual Time 7:03 AM EDT 6:40 PM EDT
Civil Twilight 6:37 AM EDT 7:06 PM EDT
Nautical Twilight 6:07 AM EDT 7:36 PM EDT
Astronomical Twilight 5:37 AM EDT 8:06 PM EDT
Moon 10:09 PM EDT (10/5) 12:01 PM EDT (10/5)
Length of Visible Light 12h 29m
Length of Day
11h 37m
Waning Gibbous, 74% of the Moon is Illuminated
Oct 5
Waning Gibbous
Oct 8
Last Quarter
Oct 15
New
Oct 21
First Quarter
Oct 29
Full

Hourly Weather History & Observations

Time (EDT) Temp. Dew Point Humidity Pressure Visibility Wind Dir Wind Speed Gust Speed Precip Events Conditions
12:56 AM 68.0 °F 64.9 °F 90% 30.13 in 10.0 mi Calm Calm - N/A   Scattered Clouds
1:56 AM 68.0 °F 64.9 °F 90% 30.13 in 10.0 mi SW 5.8 mph - N/A   Scattered Clouds
2:56 AM 66.9 °F 64.9 °F 93% 30.12 in 10.0 mi Calm Calm - N/A   Mostly Cloudy
3:56 AM 66.9 °F 64.0 °F 90% 30.12 in 9.0 mi Calm Calm - N/A   Mostly Cloudy
4:56 AM 66.0 °F 64.0 °F 93% 30.12 in 7.0 mi Calm Calm - N/A   Mostly Cloudy
5:56 AM 66.0 °F 63.0 °F 90% 30.13 in 5.0 mi Calm Calm - N/A   Mostly Cloudy
6:56 AM 64.9 °F 63.0 °F 93% 30.13 in 10.0 mi Calm Calm - N/A   Mostly Cloudy
7:56 AM 66.0 °F 63.0 °F 90% 30.14 in 10.0 mi Calm Calm - N/A   Mostly Cloudy
8:56 AM 73.0 °F 63.0 °F 71% 30.14 in 10.0 mi North 4.6 mph - N/A   Mostly Cloudy
9:56 AM 75.9 °F 57.9 °F 54% 30.14 in 10.0 mi NNE 8.1 mph - N/A   Mostly Cloudy
10:56 AM 77.0 °F 57.0 °F 50% 30.14 in 10.0 mi NNE 9.2 mph - N/A   Mostly Cloudy
11:56 AM 78.1 °F 59.0 °F 52% 30.13 in 10.0 mi North 6.9 mph - N/A   Mostly Cloudy
12:56 PM 78.1 °F 57.9 °F 50% 30.11 in 10.0 mi North 8.1 mph - N/A   Mostly Cloudy
1:56 PM 78.1 °F 57.9 °F 50% 30.08 in 10.0 mi North 6.9 mph - N/A   Mostly Cloudy
2:56 PM 78.1 °F 55.0 °F 45% 30.07 in 10.0 mi North 4.6 mph - N/A   Mostly Cloudy
3:56 PM 75.9 °F 59.0 °F 56% 30.05 in 10.0 mi ESE 6.9 mph - N/A   Mostly Cloudy
4:56 PM 75.0 °F 57.9 °F 55% 30.04 in 10.0 mi ESE 5.8 mph - N/A   Mostly Cloudy
5:56 PM 73.9 °F 59.0 °F 59% 30.04 in 10.0 mi SSE 4.6 mph - N/A   Mostly Cloudy
6:56 PM 72.0 °F 60.1 °F 66% 30.04 in 10.0 mi SSE 4.6 mph - N/A   Mostly Cloudy
7:56 PM 69.1 °F 60.1 °F 73% 30.04 in 10.0 mi Calm Calm - N/A   Mostly Cloudy
8:56 PM 64.9 °F 59.0 °F 81% 30.04 in 10.0 mi Calm Calm - N/A   Mostly Cloudy
9:56 PM 64.9 °F 60.1 °F 84% 30.04 in 10.0 mi Calm Calm - N/A   Partly Cloudy
10:56 PM 64.0 °F 59.0 °F 84% 30.04 in 10.0 mi Calm Calm - N/A   Clear
11:56 PM 64.9 °F 60.1 °F 84% 30.03 in 10.0 mi SW 3.5 mph - N/A   Clear